Weather History for Moline, IL

Change the Weather History Date:

Sunday, March 3, 2013

  Actual Average Record
Temperature  
Mean Temperature 16 °F 33 °F  
Max Temperature 31 °F 42 °F 76 °F (1983)
Min Temperature 1 °F 24 °F -12 °F (2014)
Degree Days  
Heating Degree Days 49 32  
Month to date heating degree days 131 97  
Since 1 July heating degree days 4764 4895  
Cooling Degree Days 0 0  
Month to date cooling degree days 0 0  
Year to date cooling degree days 0 0  
Moisture  
Dew Point 8 °F    
Average Humidity 64    
Maximum Humidity 88    
Minimum Humidity 39    
Precipitation  
Precipitation 0.00 in 0.09 in 1.58 in (1985)
Month to date precipitation 0.02 0.26  
Year to date precipitation 5.42 3.35  
Snow  
Snow 0.00 in 0.20 in - ()
Month to date snowfall 0.5 0.5  
Since 1 July snowfall 24.4 27.2  
Snow Depth 8.00 in    
Sea Level Pressure  
Sea Level Pressure 30.14 in    
Wind  
Wind Speed 4 mph (SE)    
Max Wind Speed 12 mph    
Max Gust Speed 14 mph    
Visibility 9 miles    
Events      
T = Trace of Precipitation, MM = Missing Value Source: NWS Daily Summary

Daily Weather History Graph

Daily Weather History Graph

Search for Another Location

Airport:

Trip Planner

Search our weather history database for the weather conditions in past years. The results will help you decide how hot, cold, wet, or windy it might be!

Date:

Astronomy

Mar. 03, 2013 Rise Set
Actual Time 6:33 AM CST 5:55 PM CST
Civil Twilight 6:05 AM CST 6:23 PM CST
Nautical Twilight 5:33 AM CST 6:55 PM CST
Astronomical Twilight 5:01 AM CST 7:27 PM CST
Moon No Moon Rise 9:43 AM CST (3/3)
Length of Visible Light 12h 17m
Length of Day
11h 22m
Waning Gibbous, 63% of the Moon is Illuminated
Mar 3
Waning Gibbous
Mar 4
Last Quarter
Mar 11
New
Mar 19
First Quarter
Mar 27
Full

Hourly Weather History & Observations

Time (CST) Temp. Windchill Dew Point Humidity Pressure Visibility Wind Dir Wind Speed Gust Speed Precip Events Conditions
12:52 AM 6.1 °F -0.9 °F 1.9 °F 83% 30.22 in 10.0 mi SW 3.5 mph - N/A   Partly Cloudy
1:52 AM 8.1 °F - 1.9 °F 76% 30.21 in 10.0 mi Calm Calm - N/A   Partly Cloudy
2:52 AM 6.1 °F - 1.9 °F 83% 30.19 in 10.0 mi Calm Calm - N/A   Clear
3:52 AM 5.0 °F - 1.0 °F 84% 30.18 in 8.0 mi Calm Calm - N/A   Clear
4:52 AM 3.9 °F - -0.0 °F 84% 30.19 in 9.0 mi Calm Calm - N/A   Clear
5:52 AM 3.2 °F - -0.4 °F 85% 30.16 in 10.0 mi Calm Calm - N/A   Clear
6:05 AM 3.2 °F - -2.2 °F 78% 30.16 in 10.0 mi Calm Calm - N/A   Scattered Clouds
6:52 AM 3.0 °F -4.4 °F -0.9 °F 84% 30.19 in 8.0 mi WSW 3.5 mph - N/A   Clear
7:52 AM 7.0 °F - 3.0 °F 84% 30.20 in 7.0 mi Calm Calm - N/A   Clear
8:52 AM 15.1 °F - 10.9 °F 84% 30.19 in 5.0 mi Calm Calm - N/A   Clear
9:52 AM 19.0 °F - 12.9 °F 77% 30.19 in 7.0 mi Calm Calm - N/A   Clear
10:52 AM 28.0 °F - 10.9 °F 49% 30.17 in 10.0 mi Calm Calm - N/A   Clear
11:52 AM 28.0 °F 21.7 °F 8.1 °F 43% 30.16 in 10.0 mi SSE 5.8 mph - N/A   Scattered Clouds
12:52 PM 28.9 °F 22.8 °F 9.0 °F 43% 30.14 in 10.0 mi SE 5.8 mph - N/A   Clear
1:52 PM 28.9 °F 22.8 °F 8.1 °F 41% 30.12 in 10.0 mi SSE 5.8 mph - N/A   Clear
2:52 PM 30.0 °F 24.1 °F 9.0 °F 41% 30.11 in 10.0 mi SE 5.8 mph - N/A   Clear
3:52 PM 28.9 °F 22.8 °F 10.9 °F 47% 30.10 in 10.0 mi ESE 5.8 mph - N/A   Clear
4:52 PM 28.0 °F 20.0 °F 12.9 °F 53% 30.10 in 10.0 mi SE 8.1 mph - N/A   Clear
5:52 PM 25.0 °F 17.1 °F 14.0 °F 63% 30.10 in 10.0 mi East 6.9 mph - N/A   Clear
6:52 PM 21.9 °F 14.5 °F 12.9 °F 68% 30.10 in 10.0 mi ESE 5.8 mph - N/A   Clear
7:52 PM 21.9 °F 13.4 °F 12.0 °F 66% 30.10 in 10.0 mi East 6.9 mph - N/A   Clear
8:52 PM 23.0 °F 14.7 °F 14.0 °F 68% 30.10 in 10.0 mi East 6.9 mph - N/A   Clear
9:52 PM 23.0 °F 13.1 °F 14.0 °F 68% 30.09 in 10.0 mi East 9.2 mph - N/A   Clear
10:52 PM 24.1 °F 13.7 °F 12.9 °F 62% 30.08 in 10.0 mi East 10.4 mph - N/A   Clear
11:52 PM 23.0 °F 13.1 °F 12.9 °F 65% 30.09 in 10.0 mi East 9.2 mph - N/A   Clear